TimeEET,TemperatureF,Dew PointF,Humidity,Sea Level PressureIn,VisibilityMPH,Wind Direction,Wind SpeedMPH,Gust SpeedMPH,PrecipitationIn,Events,Conditions,WindDirDegrees,DateUTC
12:20 AM,51.8,41.0,67,29.95,6.2,Variable,2.3,-,N/A,,Scattered Clouds,0,2013-01-21 22:20:00
12:50 AM,50.0,42.8,76,29.95,6.2,East,4.6,-,N/A,,Partly Cloudy,100,2013-01-21 22:50:00
1:20 AM,51.8,41.0,67,29.95,6.2,ESE,8.1,-,N/A,,Partly Cloudy,110,2013-01-21 23:20:00
1:50 AM,50.0,41.0,71,29.92,-9999.0,East,8.1,-,N/A,,Clear,100,2013-01-21 23:50:00
2:00 AM,50,42,64,29.94,12,East,8.1,,,,,100,2013-01-22 00:00:00
2:20 AM,55.4,41.0,58,29.92,-9999.0,ESE,8.1,-,N/A,,Clear,120,2013-01-22 00:20:00
2:50 AM,55.4,41.0,58,29.92,-9999.0,Variable,4.6,-,N/A,,Clear,0,2013-01-22 00:50:00
3:20 AM,66.2,32.0,28,29.89,-9999.0,South,9.2,-,N/A,,Clear,190,2013-01-22 01:20:00
3:50 AM,55.4,39.2,54,29.89,-9999.0,ENE,4.6,-,N/A,,Clear,70,2013-01-22 01:50:00
4:20 AM,51.8,42.8,71,29.89,-9999.0,East,5.8,-,N/A,,Clear,90,2013-01-22 02:20:00
4:50 AM,51.8,42.8,71,29.89,-9999.0,Variable,3.5,-,N/A,,Clear,0,2013-01-22 02:50:00
5:20 AM,55.4,41.0,58,29.89,-9999.0,Variable,6.9,-,N/A,,Clear,0,2013-01-22 03:20:00
5:50 AM,57.2,39.2,51,29.89,-9999.0,Variable,8.1,-,N/A,,Clear,0,2013-01-22 03:50:00
6:20 AM,66.2,30.2,26,29.86,-9999.0,SW,15.0,-,N/A,,Clear,230,2013-01-22 04:20:00
6:50 AM,66.2,28.4,24,29.86,-9999.0,SSW,27.6,-,N/A,,Clear,210,2013-01-22 04:50:00
7:20 AM,66.2,30.2,26,29.86,6.2,SSW,21.9,33.4,N/A,,Partly Cloudy,210,2013-01-22 05:20:00
7:50 AM,68.0,30.2,24,29.86,6.2,SSW,21.9,-,N/A,,Partly Cloudy,210,2013-01-22 05:50:00
8:00 AM,67,29,13,29.86,12,SSW,21.9,,,,Scattered Clouds,210,2013-01-22 06:00:00
8:20 AM,68.0,30.2,24,29.86,6.2,SSW,27.6,39.1,N/A,,Partly Cloudy,210,2013-01-22 06:20:00
8:50 AM,68.0,30.2,24,29.86,5.6,SSW,20.7,-,N/A,,Partly Cloudy,210,2013-01-22 06:50:00
9:20 AM,68.0,30.2,24,29.89,6.2,WSW,16.1,28.8,N/A,,Scattered Clouds,240,2013-01-22 07:20:00
9:50 AM,69.8,32.0,25,29.89,6.2,West,12.7,-,N/A,,Scattered Clouds,260,2013-01-22 07:50:00
10:20 AM,71.6,30.2,22,29.89,6.2,WSW,17.3,-,N/A,,Scattered Clouds,240,2013-01-22 08:20:00
10:50 AM,71.6,30.2,22,29.86,6.2,SSW,24.2,36.8,N/A,,Scattered Clouds,210,2013-01-22 08:50:00
11:20 AM,71.6,30.2,22,29.86,6.2,SSW,21.9,34.5,N/A,,Scattered Clouds,210,2013-01-22 09:20:00
11:50 AM,71.6,30.2,22,29.86,6.2,SSW,21.9,-,N/A,,Scattered Clouds,210,2013-01-22 09:50:00
12:20 PM,69.8,30.2,23,29.83,6.2,SW,19.6,32.2,N/A,,Scattered Clouds,220,2013-01-22 10:20:00
12:50 PM,69.8,28.4,21,29.83,6.2,SW,24.2,35.7,N/A,,Scattered Clouds,220,2013-01-22 10:50:00
1:20 PM,69.8,30.2,23,29.83,6.2,SSW,26.5,-,N/A,,Scattered Clouds,210,2013-01-22 11:20:00
1:50 PM,69.8,28.4,21,29.83,6.2,SSW,17.3,-,N/A,,Scattered Clouds,210,2013-01-22 11:50:00
2:00 PM,70,28,12,29.83,12,SSW,17.3,,,,Partly Cloudy,210,2013-01-22 12:00:00
2:20 PM,69.8,30.2,23,29.80,6.2,SSW,27.6,39.1,N/A,,Scattered Clouds,200,2013-01-22 12:20:00
2:50 PM,69.8,30.2,23,29.80,6.2,SSW,25.3,41.4,N/A,,Scattered Clouds,200,2013-01-22 12:50:00
3:20 PM,69.8,30.2,23,29.80,6.2,SSW,25.3,-,N/A,,Mostly Cloudy,200,2013-01-22 13:20:00
3:50 PM,69.8,30.2,23,29.80,6.2,SSW,26.5,38.0,N/A,,Mostly Cloudy,210,2013-01-22 13:50:00
4:20 PM,69.8,32.0,25,29.80,6.2,SSW,25.3,38.0,N/A,,Scattered Clouds,210,2013-01-22 14:20:00
4:50 PM,68.0,30.2,24,29.83,6.2,SSW,23.0,34.5,N/A,,Mostly Cloudy,200,2013-01-22 14:50:00
5:20 PM,69.8,30.2,23,29.80,6.2,SSW,20.7,32.2,N/A,,Mostly Cloudy,210,2013-01-22 15:20:00
5:50 PM,69.8,32.0,25,29.80,6.2,SSW,19.6,-,N/A,,Mostly Cloudy,210,2013-01-22 15:50:00
6:20 PM,69.8,32.0,25,29.80,6.2,SSW,19.6,35.7,N/A,,Mostly Cloudy,210,2013-01-22 16:20:00
6:50 PM,69.8,32.0,25,29.80,6.2,SSW,23.0,35.7,N/A,,Mostly Cloudy,210,2013-01-22 16:50:00
7:20 PM,69.8,32.0,25,29.80,6.2,SSW,27.6,40.3,N/A,,Mostly Cloudy,210,2013-01-22 17:20:00
7:50 PM,69.8,32.0,25,29.80,6.2,SSW,20.7,-,N/A,,Mostly Cloudy,210,2013-01-22 17:50:00
8:00 PM,69,32,15,29.81,12,SSW,20.7,,,,Mostly Cloudy,210,2013-01-22 18:00:00
8:20 PM,68.0,32.0,26,29.80,6.2,SSW,27.6,42.6,N/A,,Mostly Cloudy,200,2013-01-22 18:20:00
8:50 PM,68.0,32.0,26,29.80,6.2,SSW,27.6,-,N/A,,Mostly Cloudy,200,2013-01-22 18:50:00
9:20 PM,68.0,33.8,28,29.80,6.2,SSW,25.3,-,N/A,,Mostly Cloudy,200,2013-01-22 19:20:00
9:50 PM,68.0,32.0,26,29.83,6.2,SSW,20.7,-,N/A,,Mostly Cloudy,200,2013-01-22 19:50:00
10:20 PM,68.0,33.8,28,29.83,6.2,SSW,16.1,-,N/A,,Mostly Cloudy,200,2013-01-22 20:20:00
10:50 PM,68.0,33.8,28,29.83,6.2,SSW,17.3,-,N/A,,Mostly Cloudy,210,2013-01-22 20:50:00
11:20 PM,68.0,33.8,28,29.83,6.2,SSW,15.0,-,N/A,,Mostly Cloudy,210,2013-01-22 21:20:00
11:50 PM,68.0,33.8,28,29.83,6.2,SSW,18.4,-,N/A,,Mostly Cloudy,200,2013-01-22 21:50:00